Simultaneous Nadir Overpasses (SNOs) Predictions

Prediction of SNOs between TERRA and METOP-C Satellite Orbit:

Table of predicted SNOs for the next 14.0 days since TLE Epoch: 1/14/2023
Index Date (TERRA) Time (TERRA) Lat,Lon (TERRA) SZA (TERRA ) Date (METOP-C) Time (METOP-C) Lat,Lon (METOP-C) SZA (METOP-C ) Distance(km) Time Diff (sec)
1 01/16/2023 02:26:35 80.95, 179.11 103.33 01/16/2023 02:26:02 80.95, 179.19 103.33 1.38 33
2 01/16/2023 03:15:56 -80.99, -12.71 76.60 01/16/2023 03:16:40 -80.98, -12.75 76.59 0.81 44
3 01/18/2023 18:38:07 80.95, -63.76 102.79 01/18/2023 18:37:38 80.96, -63.63 102.80 2.26 29
4 01/18/2023 19:27:28 -80.99, 104.44 77.14 01/18/2023 19:28:16 -80.99, 104.49 77.12 0.87 48
5 01/21/2023 10:49:40 80.93, 53.12 102.17 01/21/2023 10:49:16 80.94, 53.10 102.17 0.56 24
6 01/21/2023 11:39:01 -80.98,-138.66 77.76 01/21/2023 11:39:54 -80.98,-138.72 77.74 0.95 53
7 01/24/2023 03:01:11 80.95, 170.44 101.57 01/24/2023 03:00:52 80.95, 170.48 101.57 0.72 19
8 01/24/2023 03:50:33 -80.97, -21.66 78.40 01/24/2023 03:51:31 -80.98, -21.63 78.37 0.87 58
9 01/26/2023 19:12:42 80.95, -72.49 100.90 01/26/2023 19:12:29 80.94, -72.58 100.88 1.75 13



Historial Predications of SNOs between TERRA and METOP-C
